RH
87 63 39 32 30 28 28 27 26 26 25 24 24 24 24 25 26 26 24 22 22 25 26 24 23 22 22 22 21 21 20 19 20 20 24 33 44 57 70 76 79 81 83 86 89 94 97 97 99 100 100 101 99 98 98 99 100 95 89 95 99 94 96 93 84 83 80 73 75 87 98 101 99 99
90 72 46 35 33 30 29 28 27 27 27 27 27 27 29 30 31 30 26 22 23 25 27 26 24 23 23 22 22 22 22 20 20 20 22 30 39 48 60 70 76 78 80 84 88 93 97 95 97 100 100 100 100 98 98 99 100 99 95 98 100 99 100 98 90 85 82 77 73 73 84 97 100 100
89 77 53 39 36 33 30 29 29 29 30 30 31 33 34 33 33 33 30 25 24 27 29 28 26 25 24 24 22 22 23 22 21 21 21 26 35 42 49 60 69 73 75 80 86 91 96 95 94 98 100 100 101 100 98 99 100 99 99 100 100 100 100 100 96 89 83 80 76 71 74 83 94 101
87 80 59 44 40 37 32 30 31 31 33 34 35 36 36 35 35 36 34 29 27 30 32 30 29 29 26 25 24 23 23 24 22 22 21 23 30 37 41 48 56 63 68 74 80 86 93 94 93 95 99 100 100 101 99 99 100 100 100 100 100 100 100 101 100 96 89 84 81 78 77 77 84 95
87 79 61 47 42 39 35 33 33 34 35 37 38 37 36 36 38 38 36 32 29 31 34 34 32 32 30 27 26 25 24 24 23 23 22 22 27 33 36 39 44 50 57 66 74 80 86 91 92 91 95 99 100 100 100 100 100 100 100 100 99 99 100 100 100 99 97 92 87 86 86 84 85 92
87 78 61 48 43 39 37 37 37 37 37 37 37 38 37 38 40 40 37 34 31 31 35 37 35 34 33 30 28 26 25 25 24 24 23 22 24 28 31 33 36 39 44 54 65 73 78 86 90 89 90 96 100 100 100 101 100 100 100 100 100 99 100 100 100 100 99 98 94 92 93 93 91 93
87 77 59 49 44 40 39 40 40 39 37 37 37 38 36 38 41 40 37 35 32 32 35 38 37 36 35 33 31 28 26 26 26 25 24 23 22 25 28 29 30 32 35 43 54 64 71 78 85 87 87 91 97 100 100 100 100 99 99 100 100 99 100 100 100 100 99 99 99 98 98 98 96 96
88 77 59 49 46 43 40 41 41 39 38 37 37 36 34 35 38 38 36 35 34 34 35 38 39 38 37 35 33 30 28 28 28 26 25 24 22 23 25 27 27 27 29 34 44 53 62 69 77 83 85 86 91 97 100 100 100 100 100 99 99 100 100 100 100 100 100 99 100 100 99 99 99 100
89 77 59 51 48 45 42 41 42 40 38 36 34 34 33 33 36 36 35 36 36 35 36 39 41 39 37 37 35 32 30 29 28 28 26 25 24 23 23 25 25 24 25 28 35 43 51 60 68 75 81 84 87 92 98 100 100 100 100 100 100 100 100 101 100 100 100 99 100 101 100 99 100 100
89 78 59 51 50 46 44 43 43 41 37 35 34 35 37 37 37 36 36 37 37 37 38 40 42 41 38 37 36 34 32 30 29 28 27 25 25 23 22 23 23 23 22 23 28 35 41 49 58 66 73 79 85 90 95 99 100 99 100 100 100 100 100 100 100 100 100 100 100 101 100 100 100 100
88 80 60 52 51 48 45 45 44 41 37 37 40 42 44 44 41 38 37 37 38 39 41 41 41 42 39 37 37 36 32 30 29 28 26 26 25 24 23 22 23 22 21 21 24 28 32 39 47 56 63 70 79 87 93 98 100 99 99 99 99 99 100 100 100 100 100 100 100 99 99 100 100 100
88 81 62 53 52 49 47 47 44 41 39 41 47 50 51 51 46 41 38 38 40 41 42 43 42 41 39 37 37 36 33 32 30 27 26 26 26 26 24 22 22 22 21 21 22 24 26 30 36 45 53 60 69 79 87 95 99 100 100 100 99 100 100 100 100 100 100 101 99 96 95 96 98 100
89 83 66 55 54 50 50 50 46 43 44 48 53 56 56 55 51 44 40 39 42 43 43 44 43 41 40 39 37 36 34 32 31 29 27 26 27 26 24 23 23 23 22 20 20 21 23 24 27 34 43 50 57 67 77 86 95 99 100 100 101 101 100 100 100 100 100 101 100 97 95 93 93 95
90 85 70 58 55 53 52 51 47 46 50 55 60 61 59 58 54 47 41 41 44 44 44 45 43 42 42 40 37 36 35 33 32 32 30 28 27 26 26 27 26 23 21 20 19 19 20 21 22 26 34 41 46 54 64 75 85 93 97 99 100 100 100 100 100 100 100 100 100 99 97 94 91 90
94 87 74 61 56 56 54 52 50 51 58 62 64 64 63 61 56 49 42 41 43 44 45 45 44 42 42 39 36 35 34 33 32 31 31 30 29 27 27 29 27 23 21 19 18 18 19 19 19 20 25 32 36 42 51 62 73 83 91 94 97 100 100 99 100 100 100 100 100 99 97 96 94 91
98 91 77 64 59 58 57 56 54 57 63 67 67 67 66 63 58 51 44 42 42 43 43 43 42 40 38 36 34 32 31 31 31 31 31 31 31 30 30 31 27 22 20 19 17 17 16 16 17 17 19 24 29 33 39 49 60 72 82 87 90 95 98 98 98 98 99 100 100 99 98 96 96 95
101 94 81 67 61 60 60 59 59 62 68 72 71 70 68 65 61 53 45 42 43 42 42 42 40 38 36 35 34 32 31 32 33 33 33 33 34 33 31 29 24 20 19 19 17 16 15 14 14 14 14 18 22 25 28 36 48 62 74 80 83 86 91 95 96 96 97 97 98 99 99 98 98 97
103 97 84 70 64 64 64 63 65 70 74 76 75 72 70 68 64 55 47 44 43 43 43 42 40 38 36 36 34 33 33 34 35 35 36 36 35 31 26 23 22 20 20 18 16 16 15 13 12 12 12 13 16 19 21 25 36 51 64 73 77 80 83 88 91 93 93 93 93 95 96 98 99 98
103 99 88 74 67 67 68 68 71 77 81 79 77 75 73 71 67 58 50 46 44 44 45 44 41 38 37 37 36 34 35 37 37 37 37 36 31 26 23 22 22 21 20 19 17 15 14 13 11 11 11 10 11 13 15 17 24 38 54 66 72 75 77 80 85 88 90 90 90 89 89 92 95 96
103 102 91 78 71 70 71 73 77 83 85 82 79 78 76 74 70 62 55 49 45 45 46 45 41 38 37 37 37 36 37 40 40 38 36 31 26 23 23 23 22 22 21 20 18 16 14 12 10 10 10 9 9 10 11 11 14 25 43 59 68 72 76 79 83 87 88 88 88 86 85 86 88 91
102 103 95 81 75 75 76 79 84 88 88 85 83 81 79 76 72 67 61 54 47 45 47 47 44 40 38 39 38 38 39 42 42 38 33 27 24 24 24 24 24 24 23 22 19 16 14 12 10 9 9 8 7 8 8 8 7 13 28 48 64 73 78 81 86 88 88 87 86 85 83 83 83 84
103 104 98 85 78 79 82 86 90 92 91 88 86 84 82 77 73 72 68 59 51 49 50 51 49 44 41 41 40 40 41 43 42 38 31 26 25 25 26 27 28 27 27 25 22 18 16 14 12 10 8 9 9 7 7 7 6 5 13 31 54 70 79 83 87 90 90 88 87 85 82 80 79 78
103 103 99 90 82 82 87 93 96 96 93 91 90 87 82 78 78 79 75 66 60 58 57 57 54 48 45 44 42 42 42 43 43 39 32 27 26 27 28 30 32 32 30 28 25 21 17 17 20 22 15 10 13 12 7 6 6 5 6 14 33 58 76 84 88 91 94 93 90 87 84 80 77 76
102 103 101 94 86 85 92 97 100 100 96 94 94 89 82 84 87 84 77 73 71 68 66 64 60 54 50 47 46 45 44 44 44 41 35 28 26 28 30 32 34 36 34 32 29 24 18 16 28 41 35 27 38 47 35 19 10 6 6 6 13 33 58 76 85 90 94 97 94 90 87 83 79 76
102 102 102 98 90 89 95 99 102 103 99 96 94 88 86 92 94 86 81 80 78 72 69 67 65 61 56 53 51 49 47 47 47 44 40 33 28 28 30 32 36 38 38 37 32 25 19 15 31 58 64 61 76 87 77 59 38 15 8 8 6 12 30 51 71 83 90 97 99 93 89 86 82 78
101 102 102 101 96 94 98 101 103 104 103 99 93 90 93 99 97 91 89 86 80 75 71 69 69 68 65 62 60 55 51 49 49 47 45 39 33 31 30 32 36 38 39 39 34 28 21 18 37 73 90 90 93 90 84 88 77 46 25 19 11 7 13 25 43 62 76 87 96 97 92 87 84 81
100 101 102 102 100 100 102 103 102 103 104 102 95 92 97 102 101 98 95 89 82 78 75 73 74 75 74 72 69 64 59 53 50 49 48 45 41 38 35 33 36 39 40 40 38 33 22 20 47 84 98 99 100 90 80 89 95 80 63 48 30 17 12 12 21 36 52 66 80 92 96 91 86 84
102 100 101 102 102 102 103 102 101 102 103 102 98 96 99 103 103 101 97 91 86 83 80 79 81 80 80 80 77 73 69 62 56 53 50 48 47 45 42 39 38 40 42 42 43 40 26 28 63 94 97 96 102 96 88 92 98 97 93 82 62 41 26 18 16 20 30 43 54 70 86 93 92 88
103 101 100 101 102 102 102 101 100 101 101 101 101 100 101 102 103 101 96 90 89 88 85 84 84 83 82 83 83 80 76 70 66 61 55 51 50 49 49 47 43 43 46 46 48 46 33 40 77 101 95 93 100 97 95 99 99 97 97 92 80 64 46 33 26 21 22 28 35 44 60 76 87 91
101 102 100 100 101 101 101 101 100 100 101 101 101 102 102 102 103 102 97 93 92 92 89 87 87 87 86 85 85 84 82 77 74 71 64 58 54 52 53 53 50 49 52 51 53 52 41 45 76 98 96 92 91 89 95 102 98 96 99 96 89 80 65 49 38 32 27 25 28 32 38 49 64 78
99 102 100 100 101 100 100 101 100 101 102 100 100 101 99 99 101 101 98 97 98 99 97 95 94 93 90 88 86 85 84 83 82 81 76 69 64 59 56 55 54 55 57 57 58 58 50 46 61 84 96 96 87 82 89 99 99 98 101 100 96 93 88 75 61 49 41 33 29 29 31 35 42 53
100 102 101 101 101 100 101 101 99 100 101 100 101 101 96 95 99 100 98 98 101 101 100 99 97 95 94 92 89 86 84 84 85 86 85 81 77 72 65 59 57 58 60 63 64 64 60 53 52 65 81 90 91 88 87 92 97 97 91 86 85 88 96 99 88 68 52 44 37 31 29 31 32 36
101 101 100 101 101 101 101 100 100 101 101 100 101 100 94 91 96 98 97 99 100 100 98 97 95 95 94 92 92 90 86 85 85 87 88 87 86 84 77 70 66 63 61 64 68 70 68 62 56 59 66 73 80 85 86 86 93 96 88 82 84 86 90 98 100 85 65 53 48 42 36 32 30 31
100 99 100 101 101 101 101 100 100 101 101 98 98 97 92 89 92 97 98 99 99 98 97 95 95 95 93 91 91 90 88 88 89 87 87 87 88 88 85 80 75 71 68 67 69 72 74 72 65 63 68 70 71 76 81 83 87 93 92 91 95 95 91 91 95 93 83 70 61 53 47 41 37 33
98 98 101 101 100 101 101 100 100 101 100 96 93 92 89 87 90 96 99 99 98 97 97 98 99 96 92 90 90 89 89 90 93 92 89 88 88 88 89 88 84 80 78 76 74 73 75 79 77 73 73 75 74 74 79 81 82 87 93 96 99 99 98 96 92 92 96 93 80 67 60 60 59 52
98 99 101 101 100 101 101 100 100 101 101 98 93 88 85 86 90 96 98 98 98 96 97 101 101 97 94 91 90 89 89 90 93 95 93 92 91 90 91 92 90 88 88 87 84 80 76 78 83 83 82 81 76 72 75 82 85 84 88 96 100 100 101 101 95 93 100 102 93 85 82 84 86 79
100 101 103 102 100 100 101 100 100 100 101 101 97 91 89 90 94 96 97 97 98 99 99 101 99 96 96 95 92 90 91 92 94 95 94 92 92 91 92 93 93 93 94 93 92 89 83 79 80 83 85 85 78 70 73 83 87 84 82 88 97 100 101 101 96 96 100 101 97 97 96 93 95 95
102 103 103 102 100 100 101 100 100 100 101 101 100 98 98 99 99 98 96 96 98 100 101 101 98 96 96 97 95 95 95 95 94 93 91 90 90 89 91 93 93 94 96 96 95 93 89 84 82 82 84 83 77 73 75 80 83 84 85 87 93 99 102 101 98 99 102 101 100 101 98 92 96 100
103 103 102 101 100 100 101 100 100 101 101 100 100 101 102 102 102 101 100 97 97 100 102 102 99 96 96 97 97 97 97 96 95 93 90 89 89 90 91 93 94 97 99 99 97 96 94 90 86 83 84 84 81 80 80 78 77 83 88 89 90 93 95 95 97 100 102 101 100 102 100 95 96 95
103 101 101 101 100 100 101 100 100 101 101 100 100 101 101 101 102 103 102 100 99 101 103 102 98 96 97 99 97 97 97 96 96 95 92 91 91 90 89 87 88 91 95 97 98 98 97 94 90 88 88 90 91 92 91 84 78 80 83 83 84 87 86 85 88 95 100 101 101 102 100 95 91 87
102 101 101 101 100 100 101 101 100 101 101 101 101 101 101 101 102 101 101 102 102 102 102 102 99 97 98 99 98 98 100 99 98 96 93 90 86 81 75 72 72 73 78 82 85 89 93 96 97 98 98 96 94 94 92 87 81 81 83 82 80 81 81 79 79 84 91 96 98 99 98 94 88 82
100 101 101 100 100 100 100 101 101 101 101 101 100 101 101 101 102 100 100 101 103 102 101 103 103 100 99 99 99 100 101 101 100 97 92 86 79 70 64 63 64 65 66 68 70 79 91 100 102 102 101 99 95 92 90 87 85 86 89 88 82 78 76 76 75 76 80 84 87 89 90 89 84 78
101 101 101 100 100 101 101 101 101 100 100 101 101 101 101 101 100 100 100 101 102 101 101 103 104 102 99 99 99 100 101 101 100 98 93 87 77 67 63 66 69 70 73 73 71 77 91 102 103 100 100 101 99 95 93 91 89 90 94 94 88 83 78 75 73 72 72 74 76 77 78 79 76 72
101 102 101 101 100 101 101 101 101 100 100 102 102 101 101 100 100 100 100 100 101 100 100 102 104 103 101 100 99 100 101 101 99 97 95 90 80 69 68 75 78 78 81 83 79 80 90 100 103 102 101 101 100 99 97 96 96 96 97 96 92 89 87 81 75 72 70 69 69 70 70 68 66 64
101 101 101 100 100 101 101 101 100 101 101 102 102 101 100 100 100 101 100 100 100 100 100 100 102 102 102 102 102 101 100 100 99 97 95 92 82 72 73 82 85 84 87 87 82 83 92 100 103 103 101 99 100 101 100 100 101 102 101 98 96 97 98 93 85 79 75 70 68 67 66 63 61 60
Wind_Speed
43 43 42 42 41 39 39 39 40 40 42 43 43 43 42 41 40 38 37 36 34 32 33 32 31 30 30 30 30 30 28 24 22 22 23 24 31 38 43 45 48 49 47 46 45 43 39 32 26 35 46 49 50 51 50 50 51 54 56 53 50 50 48 47 50 50 49 52 50 48 50 55 57 56
42 42 42 42 41 39 38 38 38 39 40 41 41 42 41 39 39 37 37 36 33 32 33 32 31 31 30 31 30 29 28 26 22 22 23 23 25 33 40 44 46 48 48 45 42 41 41 37 30 29 41 49 51 52 52 49 50 52 54 53 49 47 45 44 46 48 48 48 50 52 53 53 52 49
40 41 41 41 40 39 38 37 37 37 38 38 39 40 39 38 38 37 38 36 32 33 34 32 31 31 30 31 31 28 27 27 24 21 22 22 22 26 34 40 44 46 47 46 42 40 41 40 35 29 34 45 49 51 53 50 49 50 51 50 49 47 44 43 43 45 46 46 46 49 52 55 54 45
39 39 40 40 39 39 37 36 35 35 36 36 37 38 38 37 36 36 37 36 32 32 33 32 30 31 31 31 30 29 26 26 25 22 22 22 21 23 27 34 39 43 46 46 44 40 39 40 38 32 30 39 46 49 50 48 48 50 50 48 49 49 46 43 43 44 45 45 44 44 46 52 54 49
38 38 38 38 37 37 37 35 34 34 34 35 36 36 36 34 34 34 35 34 31 31 31 30 29 30 31 31 30 29 27 26 25 23 22 21 22 22 24 27 33 38 43 46 46 42 40 40 40 36 32 34 42 47 49 47 46 48 48 47 47 48 48 47 44 44 45 45 44 44 46 48 48 45
37 37 37 37 36 35 35 34 34 33 33 34 34 33 33 31 31 31 32 31 31 30 28 27 27 28 30 30 30 29 27 26 25 24 22 22 22 22 23 24 27 32 38 44 46 45 43 41 41 39 36 34 36 43 50 50 47 46 45 43 42 43 45 46 45 45 46 47 47 47 48 48 46 44
36 36 36 36 34 33 34 33 33 33 32 32 31 30 29 28 27 28 29 29 29 29 27 26 25 26 28 29 30 30 28 26 25 25 23 22 22 22 22 23 25 28 32 38 44 46 45 43 41 41 39 37 35 38 47 52 50 47 44 41 39 38 41 42 42 44 46 48 49 49 49 50 48 49
35 35 35 35 33 32 32 32 32 32 31 29 28 28 27 26 25 26 27 28 28 28 27 25 24 24 25 27 28 29 28 26 26 25 23 22 22 22 22 23 24 26 28 33 38 43 46 46 44 42 41 40 37 35 40 49 53 50 45 43 41 39 39 40 38 38 40 44 47 49 50 51 52 53
35 34 34 33 33 32 31 31 31 31 29 28 27 26 25 25 24 25 25 26 27 27 26 24 24 23 24 25 27 28 28 26 26 25 23 23 22 22 22 23 23 25 26 29 34 39 43 46 46 44 43 41 40 37 36 42 50 53 49 44 41 40 40 41 40 37 36 36 40 44 47 49 51 54
34 33 33 32 32 31 30 29 30 30 29 27 26 26 26 26 25 24 24 24 25 25 25 23 23 23 24 24 25 27 28 26 25 24 24 23 22 22 22 22 23 24 25 27 30 34 39 43 46 46 45 43 41 40 37 36 42 48 49 45 42 40 39 41 42 41 39 35 35 37 39 41 44 47
34 33 33 32 31 30 29 28 29 30 29 27 27 27 27 27 27 25 23 23 23 23 23 23 22 22 23 24 24 25 27 26 25 25 24 23 22 22 22 22 22 22 23 25 26 29 33 39 43 45 46 45 43 42 39 37 36 39 41 42 41 40 40 41 41 41 41 40 38 37 36 35 36 38
34 33 33 32 30 30 28 28 29 30 29 28 28 28 28 28 27 26 24 23 22 22 22 22 22 22 22 23 23 24 25 25 25 25 24 23 22 21 21 21 21 21 22 23 24 26 29 34 39 43 46 46 46 44 42 40 38 37 37 38 39 40 40 41 41 42 42 43 42 42 40 37 35 33
34 34 33 32 30 29 29 29 29 29 29 29 28 28 28 28 28 26 24 22 21 21 22 21 21 21 20 21 22 23 24 25 25 25 24 23 21 21 20 20 20 20 21 22 22 24 26 30 35 40 44 46 47 47 45 43 41 39 39 39 40 41 42 42 41 42 44 45 45 44 44 44 42 38
33 33 33 32 31 30 29 29 29 29 28 29 28 28 28 28 27 26 24 22 21 21 21 21 20 19 19 20 21 22 23 24 24 24 24 23 21 20 19 19 19 19 19 20 20 21 24 26 30 36 41 44 47 48 48 46 45 42 40 41 42 43 44 44 42 41 42 44 46 46 45 45 46 45
33 33 33 33 31 31 30 29 28 28 28 28 28 28 27 27 27 26 24 22 21 20 20 20 19 18 18 19 21 22 23 23 22 22 23 22 21 20 18 18 18 17 16 18 19 20 23 26 28 32 37 42 45 47 49 49 48 46 44 42 43 44 45 46 45 44 43 43 45 46 46 45 45 46
33 33 33 33 32 31 30 29 28 28 28 28 28 28 27 27 27 25 24 22 21 20 19 19 18 18 18 18 19 21 22 21 20 20 20 20 20 19 16 15 15 15 16 18 20 21 24 27 28 30 34 40 44 46 49 50 50 49 48 46 45 46 47 47 46 45 45 45 45 45 45 45 45 44
33 33 33 34 33 32 30 29 29 28 27 27 27 28 27 27 26 25 24 22 21 20 19 18 18 18 17 16 17 19 19 18 18 18 18 18 17 16 14 13 14 16 17 19 21 22 24 27 28 29 31 36 42 46 48 50 51 51 50 50 49 48 48 49 48 47 46 46 46 45 45 44 44 44
33 33 34 34 33 32 31 30 29 28 27 27 27 27 27 26 25 25 24 22 21 20 18 18 18 17 15 14 15 16 16 16 16 16 16 15 14 13 12 12 15 17 18 19 20 21 24 26 27 28 29 33 39 44 47 50 53 53 53 52 52 50 49 49 49 48 47 47 47 47 45 44 44 43
33 33 34 35 34 32 31 30 29 28 27 27 27 26 26 26 25 24 24 22 21 19 18 18 18 16 14 13 14 14 14 14 15 14 14 13 12 12 12 13 15 17 19 20 20 20 22 24 26 26 28 31 35 40 45 49 52 54 55 54 54 53 52 50 48 47 46 46 47 47 46 46 44 44
32 34 35 35 34 32 31 30 29 28 27 26 26 26 26 26 25 24 24 22 21 19 17 18 18 16 13 12 12 12 12 12 13 13 13 12 12 11 12 12 14 16 18 19 20 21 21 22 24 25 25 28 31 36 41 45 50 54 56 56 56 55 54 51 48 46 45 44 44 45 45 45 45 44
32 33 34 35 34 32 31 31 30 29 28 26 25 25 26 26 25 24 24 23 22 20 17 17 18 17 14 11 10 11 10 10 11 12 13 12 11 10 10 11 12 14 16 18 20 21 21 21 22 22 23 25 28 30 35 40 45 50 54 57 58 56 55 54 51 48 46 44 44 44 44 44 45 45
32 33 34 36 35 33 31 31 30 29 28 26 25 24 25 25 25 24 24 23 23 21 18 17 17 17 15 12 10 10 9 9 10 11 12 12 10 9 8 8 9 11 14 18 20 20 19 20 20 18 19 21 22 25 29 34 39 44 49 54 57 58 57 56 54 51 49 47 45 44 44 44 45 45
33 33 34 36 36 33 31 31 30 29 28 25 24 24 24 24 24 24 24 24 24 22 19 18 18 17 16 13 11 10 9 9 10 11 12 12 10 9 8 7 7 10 14 17 18 16 16 17 16 14 13 14 14 16 21 27 33 39 44 48 53 56 58 57 56 54 51 50 48 47 45 45 45 45
34 33 34 36 36 34 32 31 31 29 28 26 24 24 23 22 22 23 24 25 24 23 21 20 19 18 16 13 10 9 9 9 10 11 11 12 11 10 10 9 8 10 14 16 15 14 14 14 11 9 7 6 7 8 12 18 25 33 39 43 48 52 56 57 57 56 54 52 51 50 48 47 46 46
34 34 34 36 36 34 33 32 31 29 28 26 24 23 21 20 21 23 24 24 24 23 22 21 19 17 15 12 9 9 8 9 10 11 12 12 12 12 12 11 9 11 14 15 13 12 12 10 8 5 2 3 5 6 7 10 16 25 32 37 42 46 51 54 57 57 56 54 53 52 51 50 48 47
34 34 34 36 36 35 33 32 31 29 28 26 24 22 21 20 21 23 24 24 24 23 21 19 17 16 14 12 10 9 9 9 10 11 12 13 14 14 13 12 11 13 15 14 11 10 9 8 6 6 4 3 5 7 7 6 8 14 21 28 33 38 44 48 52 55 56 56 55 54 53 52 51 49
34 33 34 36 36 35 33 32 30 28 27 27 25 23 21 20 21 24 25 24 23 21 20 18 16 15 14 13 12 10 10 10 11 11 12 13 13 14 14 13 13 14 16 13 10 8 7 7 8 10 7 4 5 7 7 6 3 4 10 16 22 29 35 41 45 49 52 54 55 55 55 54 54 52
34 33 34 36 36 35 35 33 30 28 28 27 26 24 22 21 23 26 26 24 23 20 18 17 16 15 14 14 13 12 12 13 13 12 12 12 12 13 14 14 14 15 16 13 9 8 6 7 11 13 11 7 6 7 7 7 6 3 4 7 12 19 27 33 38 43 47 49 51 53 54 55 55 55
33 32 33 36 37 36 36 33 30 29 29 28 27 26 24 23 26 28 26 24 22 19 18 17 16 15 14 14 14 14 14 15 15 13 12 12 12 12 13 13 14 15 15 13 10 8 7 11 14 15 14 10 7 8 8 8 8 6 5 6 8 12 18 25 30 36 41 44 46 49 51 53 54 56
33 32 34 37 38 38 37 34 31 31 31 30 28 27 26 27 28 28 26 23 20 18 17 16 15 14 14 14 14 14 16 16 16 14 13 13 12 12 12 12 13 14 15 14 12 10 9 13 17 17 15 13 10 10 10 9 9 6 4 7 9 9 12 18 23 28 33 38 41 44 46 48 50 52
32 32 34 38 40 39 38 36 33 32 32 32 31 29 30 29 28 27 26 23 19 18 17 16 15 14 14 13 13 14 15 16 16 15 15 15 14 13 13 13 13 15 16 16 15 13 11 13 18 19 17 15 14 13 13 13 11 7 6 7 8 7 7 10 15 20 25 29 34 38 41 43 45 47
32 31 33 38 41 41 41 38 35 33 34 35 34 33 33 31 28 26 26 24 21 19 19 17 16 15 15 14 14 14 14 15 15 16 16 16 15 15 15 15 13 14 16 17 17 16 14 13 17 20 19 17 16 16 16 16 15 13 11 9 9 9 8 8 10 14 18 23 27 31 35 38 40 42
32 29 31 37 41 43 43 40 37 37 37 37 36 36 35 32 29 26 25 24 22 20 19 18 16 15 16 15 15 15 15 15 14 15 16 17 17 17 17 16 14 14 16 17 18 19 18 16 16 19 20 19 18 18 18 17 17 18 16 13 10 10 12 11 10 11 14 17 21 25 29 33 36 38
32 30 31 35 41 44 44 41 39 39 40 39 39 38 36 33 29 27 25 24 22 20 19 17 16 16 16 16 16 16 15 15 15 16 16 17 18 18 18 18 16 14 14 16 18 19 21 20 19 19 20 20 19 19 19 19 19 19 18 15 13 12 13 13 13 12 12 12 14 18 22 26 30 33
31 31 31 34 40 44 44 42 39 39 41 41 40 39 37 33 29 27 26 25 23 21 19 17 17 16 16 16 16 16 16 15 16 17 17 17 18 18 18 18 18 16 14 15 17 19 21 22 23 23 22 22 22 20 19 19 19 20 19 17 16 15 15 14 15 15 14 12 11 12 14 17 21 26
31 31 31 34 40 44 45 42 40 39 41 42 41 39 35 31 28 27 27 26 23 21 20 18 18 17 17 16 17 17 16 16 16 17 18 18 19 19 19 19 19 18 17 17 17 18 20 22 24 25 25 25 25 23 21 20 19 20 19 18 17 16 16 15 14 14 15 15 13 11 12 13 14 17
30 31 31 33 39 44 44 42 40 39 40 41 40 37 34 30 29 29 28 26 24 22 21 20 18 17 17 17 17 17 16 16 16 16 17 18 19 20 20 20 20 20 19 19 19 19 20 21 24 26 27 28 28 26 23 23 22 21 20 19 18 17 17 16 15 13 14 15 15 15 14 13 13 14
30 31 31 33 38 43 43 42 41 40 39 38 37 34 33 31 30 30 28 27 25 23 22 21 19 18 18 17 16 16 16 15 16 16 17 18 19 20 20 20 20 21 21 21 21 21 21 21 22 24 27 29 30 28 26 25 25 23 22 21 20 19 19 18 15 14 15 15 15 15 14 13 13 14
30 30 30 32 37 42 43 42 41 40 38 36 33 32 32 32 30 30 29 27 25 24 23 21 20 18 18 17 16 16 15 15 15 16 16 17 17 18 18 19 19 20 21 22 22 22 21 22 22 22 23 26 28 28 28 28 27 25 24 24 23 22 21 20 17 16 16 16 15 14 14 13 13 13
28 29 29 31 36 42 43 43 42 40 37 33 31 31 31 30 30 30 30 28 26 24 23 22 20 18 17 17 16 16 15 16 16 16 16 17 17 17 17 17 17 18 19 21 22 23 23 23 22 20 18 19 22 25 29 30 28 27 27 27 25 24 23 22 20 18 17 17 16 15 14 13 13 13
25 27 28 31 37 43 45 44 42 39 35 33 31 30 29 29 30 30 30 28 26 25 24 22 20 18 17 17 16 16 16 16 16 16 16 17 17 17 16 16 16 16 17 18 20 21 22 22 22 20 17 16 18 22 27 29 29 28 27 27 27 26 25 24 23 20 18 18 18 17 15 14 14 13
23 25 28 31 37 43 45 43 40 38 35 32 30 29 28 29 30 29 28 27 26 25 24 22 20 18 18 17 16 16 16 17 17 16 17 17 17 16 15 15 14 14 14 15 16 17 18 20 22 21 19 17 18 21 24 27 28 27 25 26 27 28 28 27 26 23 21 20 20 19 17 17 16 15
22 25 28 32 37 41 42 41 38 36 34 31 29 29 30 29 28 27 26 26 26 25 24 22 20 19 18 17 17 16 17 17 17 17 17 17 16 15 14 14 13 13 13 14 14 15 17 20 21 19 18 17 18 19 20 22 24 23 21 22 24 26 28 29 28 27 25 24 23 22 21 20 19 17
20 23 27 31 35 38 39 38 37 35 32 31 30 31 30 29 27 26 25 25 25 25 24 22 20 19 18 17 17 17 17 17 17 17 17 17 17 15 14 14 14 14 13 14 15 16 17 19 18 18 18 18 17 16 15 17 20 20 19 19 21 24 27 28 29 28 28 26 25 24 23 22 21 19
17 20 24 28 32 35 36 36 35 34 33 33 33 32 31 29 27 26 25 25 24 24 23 21 20 19 19 18 18 18 18 18 17 17 18 18 17 16 15 15 15 14 13 13 14 15 16 17 17 18 19 18 16 13 12 14 18 19 18 18 20 22 24 25 26 26 27 27 27 26 25 24 23 22
Wind_Direction
283 275 269 268 267 266 266 266 266 266 267 268 269 270 270 271 272 271 271 270 270 271 272 272 271 270 270 270 270 273 273 270 264 262 262 253 241 237 237 235 235 238 241 243 244 243 243 242 220 188 185 194 201 206 207 205 210 218 219 219 224 230 233 233 234 235 236 237 233 223 215 208 203 202
284 277 270 268 267 265 265 264 264 264 265 266 267 268 269 270 271 271 270 269 269 270 269 269 270 269 269 269 268 270 271 269 264 258 259 258 248 239 237 237 236 237 240 242 243 242 240 242 238 208 187 187 192 197 200 200 201 208 214 214 215 220 222 222 226 230 232 234 235 234 229 216 202 197
284 278 271 269 267 265 264 263 263 262 263 264 265 266 268 269 270 270 270 269 268 269 269 267 268 267 267 267 266 267 268 268 266 259 256 256 254 246 240 239 238 238 239 242 243 242 240 239 241 229 198 186 186 189 193 194 195 201 206 206 208 212 214 213 216 222 227 229 230 232 234 228 218 214
284 278 271 268 267 266 264 262 261 261 261 262 263 264 266 267 269 269 270 270 268 267 268 267 266 266 265 264 265 265 265 266 265 260 256 254 254 251 245 240 240 240 240 241 242 242 240 237 238 238 218 194 186 188 189 188 189 195 198 199 203 209 213 212 209 212 218 221 221 222 226 229 228 227
283 278 270 267 265 265 264 261 260 260 260 261 261 263 265 266 267 268 268 269 267 265 265 266 265 265 264 262 262 263 261 262 263 261 257 254 251 252 250 245 242 243 242 241 241 242 240 238 236 238 233 211 194 191 192 191 188 189 190 191 195 202 209 212 208 207 209 211 213 213 215 220 222 220
282 276 269 266 264 263 262 261 260 260 259 260 261 262 264 264 264 265 266 267 267 265 265 265 264 263 263 261 260 260 259 259 261 261 258 255 252 251 251 250 246 245 244 242 242 241 240 239 236 236 237 229 211 197 194 194 194 191 189 187 187 189 195 204 206 206 206 205 206 206 206 209 209 205
281 275 268 265 263 261 260 260 259 259 259 260 261 261 261 262 262 264 266 267 267 267 265 264 263 262 261 260 258 258 258 258 259 260 259 256 254 251 250 251 250 248 246 243 242 241 240 239 237 235 237 237 229 211 199 195 195 196 197 196 194 188 184 189 196 199 202 203 203 202 200 202 200 198
280 274 267 263 262 259 259 259 258 258 257 257 258 259 260 261 262 263 266 267 267 266 264 262 262 260 259 259 258 257 256 256 257 258 259 258 255 252 250 250 250 250 249 245 243 242 241 240 239 237 237 238 238 228 211 201 198 202 205 207 209 203 191 187 187 188 191 196 201 202 200 198 196 195
279 273 265 262 260 257 256 257 257 256 254 254 256 258 261 263 264 265 266 267 267 266 263 259 258 259 258 257 256 257 256 255 256 257 258 258 257 255 252 250 250 251 251 249 246 243 242 242 241 239 238 239 240 238 228 214 208 210 213 211 211 212 206 200 197 193 189 187 190 197 200 200 197 196
277 271 263 259 257 256 255 254 254 253 251 252 255 258 261 264 266 268 269 269 267 265 262 258 256 256 257 256 255 256 257 256 256 257 258 258 258 257 255 253 252 252 253 252 249 245 243 242 242 241 240 240 240 241 239 229 219 218 220 216 212 212 212 211 211 210 206 200 192 189 192 196 196 196
276 270 261 257 254 253 252 251 250 251 251 252 255 259 262 264 267 270 272 270 267 264 260 257 255 254 254 255 254 254 256 257 257 258 258 259 260 259 258 256 254 253 254 254 252 248 244 242 242 242 241 240 240 240 241 237 230 225 225 224 220 216 214 215 216 217 217 216 212 203 197 194 193 193
275 269 260 255 252 250 248 247 247 249 251 253 256 259 261 264 266 269 271 270 266 262 258 256 254 254 253 254 253 253 255 257 259 260 261 261 262 262 261 259 257 254 252 252 253 251 246 243 242 241 241 239 239 239 239 239 236 231 228 228 227 225 221 217 217 219 221 223 222 220 216 212 206 200
274 269 260 254 250 247 244 243 244 247 252 255 257 259 260 262 264 267 269 268 264 260 257 255 254 254 253 253 253 253 254 256 259 261 263 264 263 263 263 262 261 257 253 252 254 255 251 246 242 240 240 239 239 238 238 238 237 235 232 229 228 228 228 225 221 220 222 226 227 228 228 228 226 220
272 268 259 252 248 244 242 240 242 247 252 256 259 259 259 260 261 264 266 264 260 258 257 255 253 253 252 252 254 255 256 257 260 263 265 266 266 265 265 266 264 260 257 255 257 260 258 251 244 240 238 238 238 237 237 237 237 236 234 232 229 228 228 228 227 224 223 225 227 229 231 232 233 232
269 266 258 250 246 242 240 240 242 246 251 256 259 259 258 257 258 260 262 261 258 256 255 254 253 251 249 250 254 256 258 260 262 265 267 268 269 268 268 269 268 264 262 261 261 263 262 255 247 241 236 235 235 235 235 236 236 236 235 234 233 231 229 228 228 228 227 226 225 227 229 231 233 234
265 263 256 249 244 241 239 239 241 245 250 255 258 258 257 255 255 257 259 258 256 254 253 253 252 250 249 251 254 257 260 262 264 265 267 268 268 268 268 270 270 265 262 261 262 264 264 259 252 244 237 233 232 232 232 233 234 235 234 234 233 232 231 230 228 227 228 228 228 227 227 228 229 230
261 259 253 247 242 240 238 238 241 245 250 253 255 256 255 253 253 254 255 255 254 253 252 253 252 251 251 252 255 258 260 262 263 263 264 265 266 266 265 264 265 263 262 263 265 267 267 265 259 251 243 235 230 229 228 229 230 231 232 233 233 233 232 232 231 229 227 228 229 229 228 226 226 226
257 255 250 245 240 237 236 237 240 244 248 251 253 254 254 252 250 251 252 252 251 251 251 252 252 252 252 255 258 259 261 262 261 260 260 261 261 260 259 259 263 266 268 269 270 270 270 269 265 259 250 240 232 227 226 225 226 227 229 231 233 233 232 231 231 231 229 228 229 230 231 230 228 226
254 253 248 243 238 235 234 236 239 242 245 248 250 252 252 250 247 247 249 249 249 250 250 251 252 251 251 255 259 260 261 261 259 257 253 249 246 249 255 261 268 271 273 275 277 280 279 274 270 265 257 247 237 229 226 224 223 224 226 228 230 233 233 233 232 232 231 230 229 231 232 233 233 231
250 250 247 242 237 233 233 235 237 240 243 245 248 249 249 247 245 245 246 247 247 247 248 251 253 252 250 252 257 260 261 258 256 253 245 237 235 242 253 263 270 273 278 283 285 286 285 279 274 269 262 253 242 233 227 224 222 221 222 224 227 230 232 233 232 231 230 230 230 231 232 233 234 234
247 247 245 240 235 231 230 233 236 239 241 242 244 246 246 245 243 242 242 243 245 245 245 249 254 256 255 254 257 259 259 256 251 246 240 235 234 239 250 261 270 277 284 287 286 287 290 287 280 271 262 255 247 238 230 226 224 221 220 221 223 225 228 231 231 229 229 229 229 229 231 232 234 234
245 244 242 238 233 229 228 231 235 237 239 240 241 242 242 242 240 239 239 241 243 244 244 246 250 255 257 258 258 257 254 249 243 239 238 238 235 236 243 253 265 276 280 281 285 293 299 296 288 276 265 257 250 242 233 228 225 223 221 220 221 222 224 227 229 228 228 229 228 227 228 230 232 234
243 242 238 235 231 227 225 228 233 236 237 236 237 239 238 237 238 237 236 238 241 243 244 244 246 250 254 256 258 257 251 243 236 234 235 236 232 228 231 238 249 262 270 276 286 297 301 295 290 284 270 255 246 241 235 229 226 224 221 221 221 222 223 224 227 227 227 227 228 227 227 227 229 232
242 240 236 233 230 225 223 226 230 234 236 234 233 234 233 232 235 236 235 237 239 241 242 243 243 246 249 252 256 257 253 243 234 229 229 231 228 223 224 228 235 253 265 273 285 295 294 289 286 282 267 234 213 221 226 226 227 225 223 222 221 222 223 223 225 227 227 227 227 228 228 227 227 228
240 239 234 230 227 223 222 225 228 232 234 233 230 229 228 229 233 235 236 237 238 239 241 241 242 243 246 247 248 250 249 243 236 229 225 225 224 222 225 229 234 250 263 272 285 294 292 282 266 247 226 173 179 195 203 215 227 226 223 223 223 222 223 224 224 226 228 227 227 227 228 229 228 227
239 237 233 228 224 222 221 223 226 229 233 233 228 224 224 228 233 236 237 236 236 237 239 239 238 239 242 243 241 240 241 240 237 233 227 226 225 224 227 230 234 248 260 271 286 293 285 265 224 189 169 158 183 195 193 198 227 232 225 224 224 223 224 225 225 226 227 228 228 228 228 229 230 229
239 236 231 226 221 219 219 221 224 226 229 230 226 221 221 227 234 236 236 235 234 234 235 235 234 235 238 240 239 237 236 236 236 233 230 230 230 230 230 229 232 244 256 265 280 286 270 238 194 177 176 174 178 192 191 166 162 243 240 232 228 225 225 225 226 226 227 228 229 230 229 229 230 230
239 235 229 224 219 216 216 219 221 222 223 225 225 222 219 225 234 236 234 232 231 231 231 232 233 233 234 237 238 237 235 234 234 233 232 233 235 235 235 231 228 239 251 257 268 278 253 206 185 183 190 190 175 183 186 164 157 191 235 235 232 227 225 225 226 226 227 228 229 230 230 230 230 231
237 234 227 220 216 214 214 216 218 217 217 219 222 223 220 222 229 232 232 230 228 227 226 226 227 228 229 230 233 235 236 235 234 233 231 233 236 237 238 234 227 233 246 250 251 256 226 190 185 192 200 201 179 171 182 188 188 195 212 231 239 233 225 224 224 225 225 226 227 229 230 231 231 232
235 231 225 217 212 211 212 213 214 214 212 213 216 221 223 223 224 228 230 228 225 223 224 222 221 224 228 228 229 233 238 240 240 238 234 233 234 234 236 234 225 224 235 241 240 240 219 194 192 197 204 208 196 180 183 190 185 176 188 217 232 240 234 228 225 224 224 225 225 227 228 229 231 232
235 230 225 217 210 208 210 210 211 211 211 211 212 217 222 224 223 224 225 222 219 220 224 224 224 227 230 233 234 236 240 243 245 246 243 239 237 234 232 231 225 220 226 234 237 238 226 207 202 203 207 209 204 195 192 192 189 176 168 188 209 227 239 237 231 226 224 224 225 226 227 228 230 231
239 232 226 219 210 206 207 208 207 208 210 210 210 215 221 223 222 222 220 216 214 216 220 221 223 227 232 236 239 241 244 246 247 249 249 246 244 242 237 233 226 220 222 227 232 235 233 221 211 210 212 212 210 207 203 200 202 207 212 223 232 224 218 231 235 227 224 224 224 225 227 227 228 229
241 234 228 221 213 207 207 207 205 205 208 209 211 215 220 222 221 220 219 216 215 216 218 220 222 226 231 235 239 242 246 250 252 252 252 250 249 248 246 241 233 224 221 224 228 232 234 230 220 215 216 217 217 218 218 216 215 219 228 241 244 222 213 225 238 235 231 228 225 223 224 224 226 228
236 231 225 220 214 210 208 207 206 206 208 210 212 216 220 221 220 219 219 219 217 217 220 223 226 229 231 234 237 241 245 251 254 255 256 255 253 252 253 251 245 234 224 221 224 228 232 233 230 224 222 222 222 223 227 228 225 226 231 236 235 227 223 226 232 238 243 241 233 227 223 223 224 225
233 228 222 216 213 211 209 208 207 208 211 213 215 217 219 220 219 219 220 221 219 219 222 226 230 233 234 234 236 238 242 246 251 255 257 259 259 258 258 257 255 249 237 228 225 225 227 230 233 232 230 230 229 227 227 229 229 230 233 235 235 237 238 233 230 232 236 240 241 233 226 225 226 224
229 226 222 215 210 210 210 209 208 210 213 216 219 220 221 220 219 220 221 221 221 223 225 228 231 235 236 237 236 237 239 242 246 251 255 258 260 261 259 258 259 257 252 244 236 230 226 226 229 232 234 235 235 232 228 229 232 233 234 234 235 238 241 242 239 234 230 231 234 232 227 227 229 228
225 224 222 216 210 208 209 209 209 211 214 218 221 223 223 223 222 222 222 221 221 225 229 231 233 236 237 237 237 236 238 242 245 248 251 253 256 257 257 257 257 257 256 253 248 241 235 228 226 229 232 236 239 237 233 231 233 234 233 233 234 237 240 240 239 236 234 232 230 231 229 225 224 228
223 223 222 217 210 207 206 207 209 212 215 217 220 222 222 221 221 222 223 222 222 225 230 231 233 236 237 236 236 236 238 242 245 247 250 251 253 254 254 254 254 254 254 254 252 249 245 239 232 229 230 234 239 240 238 235 234 235 236 237 238 241 243 241 236 233 235 234 231 232 233 227 221 223
221 221 220 216 210 206 205 207 208 211 214 216 217 218 218 218 220 222 223 223 223 226 229 230 232 235 236 236 236 236 239 244 247 251 253 253 252 252 251 251 251 250 249 250 251 251 249 246 243 237 233 235 239 241 242 239 236 234 237 238 238 240 243 242 236 231 232 233 231 230 231 227 221 217
223 221 217 212 208 205 205 207 208 209 212 213 213 214 215 216 217 220 222 224 225 226 227 229 231 233 234 236 237 238 240 243 246 250 252 250 248 246 246 245 246 245 244 245 246 246 246 247 249 248 243 238 239 241 241 240 236 233 233 235 236 238 239 239 236 232 230 231 231 227 225 222 219 215
224 222 216 211 206 203 204 207 208 208 209 210 210 212 213 214 215 218 220 222 224 225 226 227 229 231 233 235 237 239 240 242 244 246 247 245 242 241 241 242 243 244 245 245 246 248 248 248 251 253 249 240 235 236 238 238 236 232 230 232 234 236 236 237 236 233 231 232 233 230 226 224 223 222
219 218 215 210 207 204 205 206 206 205 206 207 208 209 211 213 214 216 217 219 221 223 225 226 228 231 233 235 237 239 240 241 242 244 244 242 239 238 238 240 242 243 245 247 248 248 244 239 241 245 245 239 235 235 235 236 236 233 230 229 232 233 234 236 236 235 233 234 236 236 235 233 232 231
213 213 211 208 206 204 204 205 205 204 204 205 206 208 211 212 213 214 216 218 219 220 222 224 227 231 234 236 238 239 239 239 241 242 242 240 236 234 233 235 238 241 243 246 245 238 231 228 230 233 233 234 237 240 237 235 235 233 229 226 229 232 234 235 236 236 236 236 237 240 241 240 239 239
209 209 209 206 203 202 203 204 205 205 205 205 207 209 211 211 212 213 216 217 216 216 218 221 225 229 233 236 239 240 239 239 239 239 240 237 233 229 228 230 236 241 243 245 243 234 226 223 222 219 220 224 232 240 240 234 231 230 226 221 223 228 232 234 234 236 238 238 239 242 244 244 244 245
203 202 204 204 202 200 201 204 206 207 207 208 209 211 211 211 212 214 215 216 215 215 216 218 223 228 232 236 239 240 239 238 237 237 237 235 232 228 227 231 238 243 244 244 240 228 218 214 214 212 213 215 220 230 237 231 227 227 225 220 219 225 231 234 234 234 237 239 240 242 244 246 247 247